sat.trackr.live / text

‹ back to catalog

KUIPER-00138

NORAD 65964 · 2025-228T

PAYLOAD ACTIVE UNKNOWN

§ Identity

Operator
Country
US
Launch date
2025-10-14
Launch site
AFETR
Launch vehicle
Mass (kg)
RCS (m²)

External: N2YO · Heavens-Above · Gunter

§ Orbital elements

Epoch: 2026-09-20T02:22:21.811584Z

Period
97.30 min
Inclination
51.8986°
Eccentricity
0.0000903
Mean motion
14.79927138 rev/d
Perigee alt
628.9 km
Apogee alt
630.2 km
Semi-major
7,007.7 km
B*
-2.3009e-5
RAAN
203.3836°
Arg perigee
74.2233°
Mean anomaly
285.8829°
Rev number
5,226

§ Raw data

KUIPER-001381 65964U 25228T   26263.09886356 -.00000397  00000+0 -23009-4 0  99912 65964  51.8986 203.3836 0000903  74.2233 285.8829 14.79927138 52265

JSON: /api/v1/satellites/65964 · /tle

For live sub-satellite position, see the globe view (requires WebGL).

§ Visibility from observer

Set your observer location to see the next 7 days of passes ≥ 10°. The values pass through the URL so the page stays shareable.

No JS? Fill the form by hand. The geolocation button needs JavaScript.